Flag for San Marino Weather past 2 weeks in San Marino, San Marino

Now
66 °F

Passing clouds.


Feels Like: 66 °F
Forecast: 60 / 73 °F
Wind: N/A

Location: Rimini Airport

Current Time: Jul 31, 2014 at 12:57:49 AM

Latest Report: Jul 31, 2014 at 12:15 AM


Visibility: N/A

Pressure: 29.74 "Hg

Humidity: 88%

Dew point: 63 °F

Location of San MarinoLocation

Historic Weather in San Marino — Graph

°F

San Marino temperature yesterday

Maximum temperature yesterday: 75 °F (at 1:15 PM)
Minimum temperature yesterday: 63 °F (at 7:15 PM)
Average temperature yesterday: 68 °F

Past Weeks' High & Low Weather Summary

 TemperatureHumidityPressure
High82 °F (Jul 19, 1:45 PM)100% (Jul 21, 12:15 PM)30.07 "Hg (Jul 21, 12:15 PM)
Low63 °F (Jul 19, 4:45 AM)51% (Jul 16, 6:15 PM)29.59 "Hg (Jul 30, 5:45 AM)
Average72 °F81%29.88 "Hg
* Reported Jul 15 11:15 PM — Jul 30 11:45 PM, San Marino, Weather by CustomWeather, © 2014

Note: Actual official high and low records may vary slightly from our data, if they occured in-between our weather recording intervals... More about our weather records

Advertising

San Marino weather history for previous 24 hours

 ConditionsComfort  
Time TempWeatherWind HumidityBarometerVisibility
11:45 PM
Jul 30
64 °FPassing clouds.N/A94%29.71 "HgN/A
11:15 PM64 °FPassing clouds.N/A94%29.71 "HgN/A
10:45 PM64 °FPassing clouds.N/A94%29.71 "HgN/A
10:15 PM64 °FPassing clouds.N/A94%29.71 "HgN/A
9:45 PM64 °FPassing clouds.N/A94%29.71 "HgN/A
9:15 PM64 °FScattered clouds.N/A94%29.71 "HgN/A
8:45 PM64 °FPartly sunny.N/A88%29.71 "HgN/A
8:15 PM63 °FScattered clouds.N/A94%29.71 "HgN/A
7:45 PM63 °FThunderstorms. Scattered clouds.N/A94%29.71 "Hg5 mi
7:15 PM63 °FThunderstorms. Broken clouds.N/A100%29.71 "Hg2 mi
6:45 PM64 °FThunderstorms. Broken clouds.N/A94%29.71 "Hg2 mi
6:15 PM64 °FThunderstorms. Broken clouds.N/A94%29.68 "Hg1 mi
5:45 PM66 °FThunderstorms. Broken clouds.N/A88%29.68 "Hg2 mi
5:15 PM72 °FThunderstorms. Broken clouds.N/A78%29.68 "Hg2 mi
4:45 PM72 °FThunderstorms. Scattered clouds.N/A78%29.68 "HgN/A
4:15 PM72 °FThunderstorms. Partly sunny.N/A78%29.68 "HgN/A
3:45 PM73 °FThunderstorms. Scattered clouds.N/A74%29.68 "HgN/A
3:15 PM73 °FPartly sunny.N/A74%29.65 "HgN/A
2:45 PM73 °FScattered clouds.N/A74%29.65 "HgN/A
2:15 PM75 °FScattered clouds.N/A69%29.65 "HgN/A
1:45 PM75 °FScattered clouds.N/A54%29.65 "HgN/A
1:15 PM75 °FScattered clouds.N/A54%29.65 "HgN/A
12:45 PM73 °FScattered clouds.N/A57%29.65 "HgN/A
12:15 PM73 °FScattered clouds.N/A61%29.65 "HgN/A
11:45 AM73 °FScattered clouds.N/A69%29.62 "HgN/A
11:15 AM72 °FScattered clouds.N/A73%29.62 "HgN/A
10:45 AM70 °FScattered clouds.N/A78%29.62 "HgN/A
10:15 AM68 °FScattered clouds.N/A88%29.62 "HgN/A
9:45 AM68 °FScattered clouds.N/A88%29.62 "HgN/A
9:15 AM66 °FBroken clouds.N/A88%29.62 "HgN/A
8:45 AM68 °FScattered clouds.N/A88%29.62 "HgN/A
8:15 AM68 °FScattered clouds.N/A88%29.62 "HgN/A
7:45 AM66 °FScattered clouds.N/A88%29.59 "HgN/A
7:15 AM64 °FScattered clouds.N/A94%29.59 "HgN/A
6:45 AM64 °FPassing clouds.N/A94%29.59 "HgN/A
6:15 AM66 °FPartly cloudy.N/A94%29.59 "HgN/A
5:45 AM66 °FPartly cloudy.N/A94%29.59 "HgN/A
5:15 AM66 °FLight rain. Passing clouds.N/A94%29.62 "HgN/A
4:45 AM66 °FLight rain. Passing clouds.N/A94%29.62 "HgN/A
4:15 AM66 °FLight rain. Partly cloudy.N/A94%29.65 "HgN/A
3:45 AM66 °FLight rain. Partly cloudy.N/A94%29.65 "HgN/A
3:15 AM66 °FLight rain. Partly cloudy.N/A100%29.71 "Hg4 mi
2:45 AM66 °FLight rain. Partly cloudy.N/A100%29.71 "Hg4 mi
2:15 AM66 °FLight rain. Partly cloudy.N/A100%29.71 "Hg4 mi
1:15 AM68 °FLight rain. Partly cloudy.N/A94%29.71 "Hg4 mi
12:45 AM68 °FLight rain. Partly cloudy.N/A94%29.71 "Hg4 mi
12:15 AM68 °FLight rain. Partly cloudy.N/A94%29.74 "Hg4 mi
Weather by CustomWeather, © 2014

See weather overviewHow to use our weather pages